Regional Weather Roundup
Issued by NWS Austin/San Antonio, TX

Home | Current Version | Previous Version | Text Only | Print | Product List | Glossary On
Versions: 1 2 3 4 5 6 7 8 9 10 11 12 13 14 15 16 17 18 19 20 21 22 23 24 25 26 27 28 29 30 31 32 33 34 35 36 37 38 39 40 41 42 43 44 45 46 47 48 49 50
000
ASUS44 KEWX 131110
RWREWX
SOUTH TEXAS REGIONAL WEATHER ROUNDUP
NATIONAL WEATHER SERVICE AUSTIN/SAN ANTONIO TX
500 AM CST WED DEC 13 2017

NOTE: "FAIR" INDICATED FEW OR NO CLOUDS BELOW 12,000 FEET WITH NO
SIGNIFICANT WEATHER AND/OR OBSTRUCTIONS TO VISIBILITY.

* - THESE STATIONS ARE NOT NWS OR FAA STATIONS...AND ARE NOT SUBJECT
    TO NWS AND FAA QUALITY CONTROL.

TXZ171-172-183>190-131200-
TEXAS HILL COUNTRY AND EDWARDS PLATEAU

CITY           SKY/WX    TMP DP  RH WIND       PRES   REMARKS
JUNCTION       CLOUDY    26  23  88 W3        30.17F
*LLANO         CLOUDY    28  27  93 CALM      30.19F
BURNET         CLOUDY    34  28  79 CALM      30.17F
*HORSESHOE BAY CLOUDY    29  29  99 CALM      30.16S
*KERRVILLE     CLOUDY    29  25  87 CALM      30.17S
*FREDERICKSBRG CLOUDY    28  24  86 SW5       30.16S WCI  23
*ROCKSPRINGS   NOT AVBL
*BOERNE STAGE  PTCLDY    32  28  86 CALM      30.18R
*CASTROVILLE   PTCLDY    36  32  84 NW6       30.20S WCI  31
HONDO          CLOUDY    36  29  75 CALM      30.19R
*UVALDE        CLOUDY    35  32  87 CALM      30.20F
DEL RIO        CLOUDY    38  36  92 CALM      30.17F
LAUGHLIN AFB   MOCLDY    36  32  83 NE5       30.17F WCI  32
CARRIZO SPRGS  CLOUDY    37  36  93 CALM      30.18F
*EAGLE PASS    SUNNY     39  34  81 NW5       30.18F WCI  36
$$

TXZ173-191>194-202-209-217>225-228-131200-
CENTRAL AND SOUTH CENTRAL TEXAS

CITY           SKY/WX    TMP DP  RH WIND       PRES   REMARKS
GEORGETOWN     CLOUDY    32  28  85 SW5       30.17S WCI  27
AUSTIN/BERGSTM CLOUDY    30  28  92 CALM      30.17F
AUSTIN/MABRY   CLOUDY    40  33  76 VRB3      30.17F
*AUSTIN/EXEC   CLOUDY    36  32  87 CALM      30.17S
*LAGO VISTA    CLOUDY    37  32  82 W8        30.15S WCI  30
SAN MARCOS     CLOUDY    33  29  85 NW7       30.18F WCI  27
NEW BRAUNFELS  PTCLDY    34  30  85 W6        30.15F WCI  29
RANDOLPH AFB   PTCLDY    36  29  77 CALM      30.18S
PT SAN ANTONIO PTCLDY    34  31  87 CALM      30.16S
SAN ANTONIO    PTCLDY    37  30  75 NW7       30.19R WCI  32
STINSON FIELD  CLOUDY    38  34  85 CALM      30.17S
*LA GRANGE     CLOUDY    34  32  92 CALM      30.16S
*GIDDINGS      CLOUDY    31  29  93 CALM      30.17S
*GONZALES      CLOUDY    37  33  89 N5        30.17F WCI  33
$$

TXZ163>164-176>182-195>201-210>213-226-227-235-131200-
SOUTHEAST TEXAS

CITY           SKY/WX    TMP DP  RH WIND       PRES   REMARKS
COLLEGE STN    CLOUDY    33  29  85 S3        30.16F
*BRYAN         CLOUDY    32  29  91 SW3       30.17S
*CALDWELL      CLOUDY    31  28  86 CALM      30.16F
*CROCKETT        N/A     27  25  93 CALM      30.18S
*BRENHAM       CLOUDY    32  31  96 CALM      30.17S
HUNTSVILLE     CLOUDY    35  27  72 CALM      30.14F
CONROE         CLOUDY    29  28  96 CALM      30.17S
HOUSTON BUSH   CLOUDY    36  33  89 CALM      30.18S
HOUSTON HOBBY  PTCLDY    36  34  92 W3        30.17F
*HOUSTON SW AP PTCLDY    31  30  98 MISG      30.19F
PEARLAND       PTCLDY    34  33  96 CALM      30.19S
HOUSTON HOOKS  PTCLDY    32  31  96 CALM      30.17F
ELLINGTON FLD  NOT AVBL
SUGAR LAND     PTCLDY    34  32  92 CALM      30.17F
*HOUSTON EXEC  NOT AVBL
*CLEVELAND MUN PTCLDY    30  29  95 CALM      30.18S
*WHARTON       CLOUDY    33  31  94 CALM      30.19S
*COLUMBUS      FAIR     N/A N/A N/A CALM      30.19S
*EAGLE LAKE    CLOUDY    36  33  90 W3        30.18S
$$

TXZ214>216-236>238-131200-
THE UPPER TEXAS COAST

CITY           SKY/WX    TMP DP  RH WIND       PRES   REMARKS
*ORANGE        CLOUDY    31  31 100 CALM      30.19F
PORT ARTHUR    CLOUDY    33  30  88 MISG      30.17F
GALVESTON      PTCLDY    45  41  86 CALM      30.19S
ANGLETON       PTCLDY    32  30  92 CALM      30.18S
*BAY CITY      CLOUDY    33  32  96 CALM      30.18F
PALACIOS       CLOUDY    37  33  85 CALM      30.18F
$$

TXZ229>234-239>247-131200-
TEXAS COASTAL BEND AND RIO GRANDE PLAINS

CITY           SKY/WX    TMP DP  RH WIND       PRES   REMARKS
VICTORIA       CLOUDY    34  29  82 W6        30.19S WCI  29
*BEEVILLE      CLOUDY    41  33  74 CALM      30.19S
ROCKPORT       MOCLDY    43  39  86 NW5       30.19S WCI  40
*PORT ARANSAS  NOT AVBL
*PORT LAVACA   CLOUDY    37  32  83 NW5       30.19S WCI  33
*INGLESIDE     NOT AVBL
CORPUS CHRISTI MOCLDY    42  39  89 N3        30.19S
CORPUS NAS     PTCLDY    52  45  77 N3        30.18S
*ROBSTOWN      MOCLDY    41  37  84 N3        30.20S
ALICE          CLOUDY    39  34  82 W3        30.19S
KINGSVILLE NAS PTCLDY    41  38  89 NW5       30.19F WCI  38
COTULLA        CLOUDY    42  32  67 E3        30.20S
*FAITH RANCH   CLEAR     39  36  87 CALM      30.18F
LAREDO           N/A    N/A N/A N/A MISG        N/A
$$

TXZ248>255-131200-
DEEP SOUTH TEXAS

CITY           SKY/WX    TMP DP  RH WIND       PRES   REMARKS
BROWNSVILLE    PTCLDY    46  42  86 W3        30.19F
PORT ISABEL    PTCLDY    46  40  79 W7        30.17F WCI  42
*SOUTH PADRE   NOT AVBL
HARLINGEN      PTCLDY    43  39  86 W5        30.18F WCI  40
*HEBBRONVILLE  PTCLDY    44  34  70 CALM      30.19F
MCALLEN        PTCLDY    43  39  86 CALM      30.20F
*WESLACO       PTCLDY    42  38  83 CALM      30.19S
FALFURRIAS     CLOUDY    43  37  79 CALM      30.19F
EDINBURG       PTCLDY    43  37  79 CALM      30.20F
*ZAPATA        PTCLDY    41  38  89 CALM      30.19S
$$

TXZ213>215-236>238-242>244-246-247-251-254-255-131200-
CMAN STATIONS

STATION/POSITION TIME  TEMP    WIND        PRES    WAVE
                       AIR SEA DIR/SP/G            HT/PER
                 (UTC) (F)     (DEG/KT/KT) (MB)    (FT/S)
SABINE PASS      1048   46 57  360/  6/  8 1023.1
SEA RIM ST PARK  1100   39     350/  4/  4 1022.1
NORTH JETTY/GLS  1036      57   10/  7/  9 1021.2
EAGLE POINT      1048   44 55  310/  3/  5 1022.0
MORGANS POINT    1048   47 56  360/  1/  2 1021.8
PORT O`CONNOR    1048   53 54   70/  7/  7 1021.6
MALAQUITE BEACH  1048   54 62  350/  4/  5 1021.7
BAFFIN BAY       1048   49 56  330/  6/  6 1022.3
PORT ISABEL      1048   47 57  300/  5/  5 1021.5
$$




USA.gov is the U.S. government's official web portal to all federal, state and local government web resources and services.